CZ-6A DEB

Satellite information

Favourite Embed

Satellite Type and Status

DEBRISIN ORBIT

Key statistics

Satellite CZ-6A DEB at a glance.

Uptime

1128

Days in orbit

Revolutions

≈ 14.4

Per day

Orbit

SSO

Sun Synchronous Orbit

Inclination

98.7

Latest

Satellite identification and parameters

Extended collection of information and parameters for CZ-6A DEB.

Object identification

Identified? True

Debris? True

Object name: CZ-6A DEB

International designator: 2022-151NK

Object number (NORAD): 54609

Object ID (CCSDS): 54609

Country: PEOPLES REPUBLIC OF CHINA (PRC)

Current information (Y/N): Y

RCS size: SMALL

Orbital parameters

Period: 99.693 minutes

Inclination: 98.7379 deg

SMA: 7122.014 km

Apoapsis: 770.869 km

Periapsis: 716.889 km

RAAN: 19.618 deg

Eccentricy: 0.00378966

Argument of periapsis: 125.6755 deg

Mean anomaly: 234.7972 deg

Mean motion: 14.44436883 rev/day

Mean motion (dot): 0.00011231 rev/day2

B* drag term: 0.0032364661 1/REarth

Two-line elements (TLE)

Creation date: Dec. 12, 2025, 10:14 a.m.

Reference frame: TEME

Reference center: EARTH

Epoch: Dec. 12, 2025, 1:46 a.m. UTC

TLE line 0: 0 CZ-6A DEB

TLE line 1: 1 54609U 22151NK 25346.07375029 .00011231 00000-0 32365-2 0 9997

TLE line 2: 2 54609 98.7379 19.6180 0037897 125.6755 234.7972 14.44436883160544

Live tracking on map

Real-time ground track for satellite CZ-6A DEB.

In-orbit conjunctions

A list of the most updated potential collisions computed for object CZ-6A DEB.

Target Orbit TCA Probability of collision Miss distance Type
SL-8 R/B LEO 2025-08-17 03:48:07 0.0002433072 525.0 (m) ROCKET BODY
CZ-6A DEB LEO 2025-04-22 18:36:57 0.0001388268 162.0 (m) DEBRIS
COSMOS 1624 LEO 2025-01-01 10:38:48 0.0002375919 349.0 (m) PAYLOAD
CZ-4B R/B SSO 2024-12-22 07:27:30 0.0001147651 937.0 (m) ROCKET BODY

Associated space launch

Chinese satellite reported for atmospheric/ocean/environmental/spatial parameter research purposes, details TBD.

CZ-6A DEB was lifted into orbit during the mission ‘Long March 6A | Yunhai 3’, on board a Long March 6A space rocket.

The launch took place on Nov. 11, 2022, 10:52 p.m. from Launch Complex 9A.

For more information about the launch, click the button.

Launch to space Long March 6A | Yunhai 3
Long March 6A | Yunhai 3

Agency: N/A

Status: Launch Successful

Launch date: Nov. 11, 2022, 10:52 p.m. UTC

Rocket: Long March 6A

Launch pad: Launch Complex 9A

Location: Taiyuan Satellite Launch Center, People's Republic of China

...

Latest news about this satellite

There are no fresh news available about this satellite. Check back as we update our databases every day.


Newsletter sign-up

Weekly statistics, charts and insights to help you stay on top of the space industry.